AFL1044 UUEE-URSS

Flight info

Callsign AFL1044
Flight time 3h 15m
Altitude 35000
Route RILPO3H RILPO DCT DIPGO DCT BUDOM/K0835F360 DCT NIMTA/K0837F370 DCT MOLED N50 LIDUS/K0841F360 G242 ZG/K0850F370 DCT ITAKA/K0850F360 DCT OBBUD DCT AMKOL DCT GOTIK DCT MEMZA DCT VENFO DCT BINOL BINOL1K
Aircraft A321/M-SDE3FGHIRWY/LB1

Departure

Time 2026-05-07 16:54
Airport Sheremetyevo International Airport (UUEE)

Arrival

Time 2026-05-07 20:09
Airport Sochi International Airport (URSS)
Time Latitude Longitude Altitude Speed Heading
2026-05-07 16:01 55.97880 37.41915 639 ft 0 kts 255°
2026-05-07 16:40 55.97881 37.41917 639 ft 2 kts 255°
2026-05-07 16:40 55.97887 37.41961 639 ft 4 kts 256°
2026-05-07 16:41 55.97894 37.42007 646 ft 4 kts 242°
2026-05-07 16:41 55.97907 37.42034 645 ft 3 kts 171°
2026-05-07 16:41 55.97910 37.42033 644 ft 0 kts 165°
2026-05-07 16:44 55.97903 37.42036 641 ft 5 kts 165°
2026-05-07 16:44 55.97846 37.42064 641 ft 9 kts 165°
2026-05-07 16:45 55.97792 37.42089 644 ft 7 kts 165°
2026-05-07 16:45 55.97747 37.42111 639 ft 6 kts 165°
2026-05-07 16:45 55.97710 37.42130 639 ft 5 kts 158°
2026-05-07 16:45 55.97689 37.42186 643 ft 11 kts 104°
2026-05-07 16:46 55.97700 37.42298 641 ft 8 kts 76°
2026-05-07 16:46 55.97714 37.42382 644 ft 7 kts 74°
2026-05-07 16:46 55.97734 37.42515 642 ft 12 kts 75°
2026-05-07 16:46 55.97756 37.42659 641 ft 12 kts 75°
2026-05-07 16:47 55.97776 37.42794 639 ft 11 kts 76°
2026-05-07 16:47 55.97794 37.42920 642 ft 11 kts 75°
2026-05-07 16:47 55.97816 37.43058 640 ft 11 kts 75°
2026-05-07 16:47 55.97839 37.43210 645 ft 16 kts 75°
2026-05-07 16:48 55.97866 37.43395 645 ft 15 kts 75°
2026-05-07 16:48 55.97892 37.43567 647 ft 14 kts 75°
2026-05-07 16:48 55.97916 37.43727 642 ft 13 kts 75°
2026-05-07 16:48 55.97938 37.43877 645 ft 12 kts 75°
2026-05-07 16:49 55.97942 37.43991 641 ft 6 kts 114°
2026-05-07 16:49 55.97906 37.44043 645 ft 8 kts 155°
2026-05-07 16:49 55.97836 37.44076 640 ft 12 kts 165°
2026-05-07 16:49 55.97756 37.44113 641 ft 12 kts 165°
2026-05-07 16:50 55.97694 37.44143 639 ft 6 kts 165°
2026-05-07 16:50 55.97670 37.44154 639 ft 0 kts 165°
2026-05-07 16:50 55.97657 37.44160 639 ft 8 kts 165°
2026-05-07 16:51 55.97589 37.44188 643 ft 10 kts 176°
2026-05-07 16:51 55.97539 37.44138 640 ft 8 kts 240°
2026-05-07 16:51 55.97530 37.44086 639 ft 0 kts 254°
2026-05-07 16:51 55.97530 37.44083 639 ft 2 kts 254°
2026-05-07 16:52 55.97497 37.43860 644 ft 29 kts 255°
2026-05-07 16:52 55.97491 37.43819 640 ft 0 kts 255°
2026-05-07 16:53 55.97463 37.43633 638 ft 47 kts 255°
2026-05-07 16:53 55.97320 37.42676 642 ft 109 kts 255°
2026-05-07 16:53 55.97079 37.41062 643 ft 157 kts 255°
2026-05-07 16:53 55.96765 37.38961 693 ft 188 kts 256°
2026-05-07 16:54 55.96399 37.36753 1319 ft 183 kts 255°
2026-05-07 16:54 55.96282 37.34525 1954 ft 183 kts 279°
2026-05-07 16:54 55.96859 37.32485 2482 ft 194 kts 310°
2026-05-07 16:54 55.98140 37.31345 2669 ft 226 kts 350°
2026-05-07 16:55 55.99783 37.31431 2827 ft 253 kts
2026-05-07 16:55 56.01606 37.31687 3350 ft 268 kts
2026-05-07 16:55 56.03486 37.31974 4129 ft 273 kts
2026-05-07 16:55 56.05392 37.32265 4920 ft 277 kts
2026-05-07 16:56 56.07333 37.32554 5662 ft 282 kts 360°
2026-05-07 16:56 56.09314 37.32842 6433 ft 287 kts 359°
2026-05-07 16:56 56.13342 37.33403 7900 ft 294 kts 359°
2026-05-07 16:57 56.15366 37.33684 8653 ft 298 kts 359°
2026-05-07 16:57 56.17444 37.33956 9388 ft 302 kts 357°
2026-05-07 16:57 56.19556 37.34179 10080 ft 306 kts 356°
2026-05-07 16:57 56.21743 37.34375 10363 ft 326 kts 356°
2026-05-07 16:58 56.24099 37.34564 10515 ft 350 kts 356°
2026-05-07 16:58 56.26607 37.34774 10634 ft 372 kts 357°
2026-05-07 16:58 56.29264 37.35018 10880 ft 389 kts 358°
2026-05-07 16:58 56.31999 37.35294 11438 ft 395 kts 358°
2026-05-07 16:59 56.34764 37.35591 12079 ft 400 kts 358°
2026-05-07 16:59 56.37518 37.35890 12683 ft 404 kts 358°
2026-05-07 16:59 56.40339 37.36191 13308 ft 408 kts 358°
2026-05-07 16:59 56.43187 37.36485 13899 ft 412 kts 358°
2026-05-07 17:00 56.46059 37.36776 14436 ft 415 kts 358°
2026-05-07 17:00 56.48956 37.37066 15021 ft 417 kts 358°
2026-05-07 17:00 56.51864 37.37355 15570 ft 421 kts 358°
2026-05-07 17:00 56.54795 37.37646 16094 ft 424 kts 358°
2026-05-07 17:01 56.57758 37.37940 16618 ft 427 kts 358°
2026-05-07 17:01 56.60728 37.38672 17116 ft 437 kts 10°
2026-05-07 17:01 56.63605 37.40586 17615 ft 446 kts 24°
2026-05-07 17:01 56.66249 37.43674 18138 ft 454 kts 37°
2026-05-07 17:02 56.68477 37.47785 18575 ft 459 kts 51°
2026-05-07 17:02 56.70144 37.52666 19015 ft 462 kts 65°
2026-05-07 17:02 56.71418 37.58052 19478 ft 464 kts 67°
2026-05-07 17:02 56.72676 37.63478 19962 ft 465 kts 67°
2026-05-07 17:03 56.73936 37.68917 20424 ft 468 kts 67°
2026-05-07 17:03 56.75207 37.74413 20869 ft 470 kts 66°
2026-05-07 17:03 56.76482 37.79939 21307 ft 473 kts 66°
2026-05-07 17:03 56.77755 37.85472 21731 ft 476 kts 66°
2026-05-07 17:04 56.79027 37.91001 22134 ft 479 kts 66°
2026-05-07 17:04 56.80316 37.96615 22558 ft 481 kts 66°
2026-05-07 17:04 56.81611 38.02276 22973 ft 484 kts 66°
2026-05-07 17:04 56.82898 38.07939 23368 ft 487 kts 66°
2026-05-07 17:05 56.84204 38.13695 23737 ft 489 kts 66°
2026-05-07 17:05 56.85360 38.19558 24082 ft 493 kts 74°
2026-05-07 17:05 56.86043 38.25728 24357 ft 496 kts 83°
2026-05-07 17:05 56.86196 38.32041 24658 ft 498 kts 93°
2026-05-07 17:06 56.85835 38.38343 24980 ft 498 kts 102°
2026-05-07 17:06 56.85106 38.44529 25307 ft 500 kts 104°
2026-05-07 17:06 56.84347 38.50748 25614 ft 502 kts 104°
2026-05-07 17:06 56.83586 38.56973 25963 ft 504 kts 104°
2026-05-07 17:07 56.82823 38.63224 26303 ft 505 kts 104°
2026-05-07 17:07 56.82055 38.69498 26612 ft 507 kts 104°
2026-05-07 17:07 56.81289 38.75711 26958 ft 508 kts 104°
2026-05-07 17:07 56.80499 38.82065 27397 ft 507 kts 104°
2026-05-07 17:08 56.79723 38.88246 27820 ft 505 kts 104°
2026-05-07 17:08 56.78932 38.94485 28251 ft 504 kts 104°
2026-05-07 17:08 56.78139 39.00719 28659 ft 504 kts 104°
2026-05-07 17:08 56.77346 39.06935 29089 ft 503 kts 104°
2026-05-07 17:09 56.76559 39.13137 29471 ft 502 kts 104°
2026-05-07 17:09 56.75776 39.19314 29949 ft 499 kts 104°
2026-05-07 17:09 56.74991 39.25462 30333 ft 497 kts 104°
2026-05-07 17:09 56.74200 39.31616 30704 ft 496 kts 104°
2026-05-07 17:10 56.73408 39.37734 31077 ft 495 kts 104°
2026-05-07 17:10 56.72614 39.43822 31449 ft 494 kts 104°
2026-05-07 17:10 56.71817 39.49909 31830 ft 494 kts 105°
2026-05-07 17:10 56.71016 39.55998 32185 ft 493 kts 105°
2026-05-07 17:11 56.70224 39.61996 32529 ft 493 kts 105°
2026-05-07 17:11 56.69420 39.68052 32907 ft 492 kts 105°
2026-05-07 17:11 56.68617 39.74097 33269 ft 491 kts 104°
2026-05-07 17:11 56.67814 39.80123 33701 ft 488 kts 104°
2026-05-07 17:12 56.67012 39.86116 34074 ft 487 kts 105°
2026-05-07 17:12 56.66207 39.92098 34386 ft 486 kts 105°
2026-05-07 17:12 56.65403 39.98067 34675 ft 485 kts 105°
2026-05-07 17:12 56.64598 40.04015 34864 ft 486 kts 105°
2026-05-07 17:13 56.62981 40.15909 34906 ft 484 kts 105°
2026-05-07 17:13 56.61365 40.27711 34906 ft 484 kts 105°
2026-05-07 17:14 56.59724 40.39550 34905 ft 482 kts 105°
2026-05-07 17:14 56.58075 40.51330 34903 ft 480 kts 105°
2026-05-07 17:15 56.56425 40.63066 34899 ft 480 kts 105°
2026-05-07 17:15 56.55046 40.72811 34898 ft 480 kts 105°
2026-05-07 17:16 56.53112 40.86419 34915 ft 480 kts 105°
2026-05-07 17:16 56.51715 40.96164 34891 ft 480 kts 105°
2026-05-07 17:17 56.50020 41.07844 34904 ft 479 kts 105°
2026-05-07 17:17 56.47474 41.21069 34910 ft 475 kts 120°
2026-05-07 17:18 56.44863 41.29810 34899 ft 475 kts 120°
2026-05-07 17:18 56.41742 41.40330 34897 ft 475 kts 120°
2026-05-07 17:19 56.38602 41.50830 34882 ft 474 kts 120°
2026-05-07 17:19 56.35457 41.61288 34890 ft 473 kts 120°
2026-05-07 17:20 56.32310 41.71715 34892 ft 473 kts 120°
2026-05-07 17:20 56.29183 41.82048 34892 ft 473 kts 120°
2026-05-07 17:21 56.26026 41.92419 34891 ft 472 kts 120°
2026-05-07 17:21 56.22862 42.02770 34887 ft 472 kts 120°
2026-05-07 17:22 56.19692 42.13101 34885 ft 471 kts 120°
2026-05-07 17:22 56.16518 42.23396 34884 ft 471 kts 120°
2026-05-07 17:23 56.13336 42.33671 34882 ft 471 kts 120°
2026-05-07 17:23 56.10144 42.43916 34870 ft 471 kts 120°
2026-05-07 17:24 56.06950 42.54136 34876 ft 470 kts 120°
2026-05-07 17:24 56.03753 42.64329 34884 ft 470 kts 121°
2026-05-07 17:25 56.00549 42.74502 34887 ft 470 kts 121°
2026-05-07 17:25 55.97329 42.84672 34890 ft 470 kts 121°
2026-05-07 17:26 55.94101 42.94827 34890 ft 469 kts 121°
2026-05-07 17:26 55.90885 43.04891 34894 ft 469 kts 121°
2026-05-07 17:27 55.87649 43.15005 34894 ft 469 kts 121°
2026-05-07 17:27 55.84400 43.25102 34894 ft 469 kts 121°
2026-05-07 17:28 55.81140 43.35170 34894 ft 469 kts 121°
2026-05-07 17:28 55.77881 43.45205 34912 ft 468 kts 121°
2026-05-07 17:29 55.74619 43.55219 34916 ft 468 kts 121°
2026-05-07 17:29 55.71346 43.65206 34935 ft 467 kts 122°
2026-05-07 17:30 55.68089 43.75105 34916 ft 467 kts 122°
2026-05-07 17:30 55.64807 43.85054 34901 ft 467 kts 121°
2026-05-07 17:31 55.61524 43.94980 34915 ft 467 kts 121°
2026-05-07 17:31 55.58227 44.04877 34922 ft 467 kts 122°
2026-05-07 17:32 55.54923 44.14743 34927 ft 466 kts 122°
2026-05-07 17:32 55.51626 44.24605 34922 ft 466 kts 122°
2026-05-07 17:33 55.48316 44.34454 34925 ft 466 kts 122°
2026-05-07 17:33 55.44992 44.44273 34925 ft 466 kts 122°
2026-05-07 17:34 55.41680 44.54009 34933 ft 466 kts 122°
2026-05-07 17:34 55.38340 44.63794 34935 ft 466 kts 122°
2026-05-07 17:35 55.34726 44.73232 34931 ft 463 kts 135°
2026-05-07 17:35 55.32345 44.77011 34931 ft 460 kts 146°
2026-05-07 17:35 55.29624 44.79909 34925 ft 457 kts 156°
2026-05-07 17:36 55.26648 44.81828 34923 ft 454 kts 168°
2026-05-07 17:36 55.23544 44.82697 34924 ft 450 kts 179°
2026-05-07 17:36 55.17347 44.82274 34924 ft 449 kts 185°
2026-05-07 17:37 55.11104 44.81664 34927 ft 449 kts 185°
2026-05-07 17:37 55.04857 44.81078 34927 ft 450 kts 185°
2026-05-07 17:38 54.98605 44.80484 34924 ft 450 kts 184°
2026-05-07 17:38 54.92338 44.79868 34923 ft 451 kts 184°
2026-05-07 17:39 54.86060 44.79275 34925 ft 452 kts 184°
2026-05-07 17:39 54.79785 44.78683 34927 ft 452 kts 184°
2026-05-07 17:40 54.73505 44.78091 34928 ft 452 kts 184°
2026-05-07 17:40 54.67257 44.77493 34934 ft 452 kts 184°
2026-05-07 17:41 54.60974 44.76898 34933 ft 452 kts 184°
2026-05-07 17:41 54.54694 44.76309 34934 ft 453 kts 184°
2026-05-07 17:42 54.48395 44.75723 34929 ft 453 kts 184°
2026-05-07 17:42 54.42096 44.75138 34932 ft 453 kts 184°
2026-05-07 17:43 54.35791 44.74545 34935 ft 453 kts 184°
2026-05-07 17:43 54.29490 44.73953 34938 ft 453 kts 184°
2026-05-07 17:44 54.23186 44.73371 34940 ft 454 kts 184°
2026-05-07 17:44 54.16876 44.72794 34936 ft 454 kts 184°
2026-05-07 17:45 54.10601 44.72212 34930 ft 455 kts 184°
2026-05-07 17:45 54.04278 44.71632 34935 ft 455 kts 184°
2026-05-07 17:46 53.97954 44.71058 34941 ft 455 kts 184°
2026-05-07 17:46 53.91621 44.70482 34942 ft 455 kts 184°
2026-05-07 17:47 53.85300 44.69899 34941 ft 455 kts 183°
2026-05-07 17:47 53.78960 44.69326 34935 ft 456 kts 183°
2026-05-07 17:48 53.72636 44.68750 34939 ft 457 kts 183°
2026-05-07 17:48 53.66285 44.68178 34939 ft 457 kts 183°
2026-05-07 17:49 53.59936 44.67617 34941 ft 457 kts 183°
2026-05-07 17:49 53.53577 44.67045 34944 ft 457 kts 183°
2026-05-07 17:50 53.47259 44.66470 34944 ft 457 kts 183°
2026-05-07 17:50 53.40895 44.65901 34947 ft 457 kts 183°
2026-05-07 17:51 53.34555 44.65336 34950 ft 458 kts 183°
2026-05-07 17:51 53.28220 44.64777 34949 ft 458 kts 183°
2026-05-07 17:52 53.21859 44.64224 34947 ft 458 kts 183°
2026-05-07 17:52 53.15492 44.63672 34951 ft 458 kts 183°
2026-05-07 17:53 53.09125 44.63120 34957 ft 457 kts 183°
2026-05-07 17:53 53.02778 44.62552 34963 ft 457 kts 183°
2026-05-07 17:54 52.96465 44.61992 34964 ft 457 kts 183°
2026-05-07 17:54 52.90121 44.61437 34963 ft 456 kts 183°
2026-05-07 17:55 52.83770 44.60893 34962 ft 456 kts 183°
2026-05-07 17:55 52.77425 44.60362 34964 ft 456 kts 183°
2026-05-07 17:56 52.71078 44.59809 34952 ft 457 kts 183°
2026-05-07 17:56 52.64714 44.59252 34949 ft 458 kts 183°
2026-05-07 17:57 52.59420 44.58808 34950 ft 458 kts 183°
2026-05-07 17:57 52.52014 44.58181 34950 ft 458 kts 183°
2026-05-07 17:58 52.45636 44.57636 34949 ft 458 kts 183°
2026-05-07 17:58 52.39267 44.57087 34956 ft 458 kts 183°
2026-05-07 17:59 52.32888 44.56544 34957 ft 459 kts 183°
2026-05-07 17:59 52.26520 44.56015 34957 ft 459 kts 183°
2026-05-07 18:00 52.20174 44.55479 34957 ft 459 kts 183°
2026-05-07 18:00 52.13795 44.54938 34955 ft 459 kts 183°
2026-05-07 18:01 52.07416 44.54403 34959 ft 459 kts 183°
2026-05-07 18:01 52.01033 44.53867 34958 ft 459 kts 183°
2026-05-07 18:02 51.92520 44.53160 34957 ft 459 kts 183°
2026-05-07 18:03 51.86131 44.52629 34958 ft 460 kts 183°
2026-05-07 18:03 51.79741 44.52107 34959 ft 460 kts 183°
2026-05-07 18:04 51.73355 44.51590 34958 ft 460 kts 183°
2026-05-07 18:04 51.66961 44.51062 34961 ft 460 kts 183°
2026-05-07 18:05 51.60559 44.50531 34954 ft 460 kts 183°
2026-05-07 18:05 51.54156 44.49999 34957 ft 461 kts 183°
2026-05-07 18:06 51.47759 44.49475 34956 ft 461 kts 183°
2026-05-07 18:06 51.41352 44.48956 34964 ft 461 kts 183°
2026-05-07 18:07 51.34984 44.48446 34963 ft 461 kts 183°
2026-05-07 18:07 51.28574 44.47925 34961 ft 461 kts 183°
2026-05-07 18:08 51.22159 44.47409 34963 ft 461 kts 183°
2026-05-07 18:08 51.15735 44.47003 34959 ft 461 kts 178°
2026-05-07 18:09 51.09335 44.47844 34961 ft 461 kts 175°
2026-05-07 18:09 51.02943 44.48761 34966 ft 461 kts 174°
2026-05-07 18:10 50.96577 44.49665 34962 ft 462 kts 174°
2026-05-07 18:10 50.90149 44.50563 34961 ft 463 kts 174°
2026-05-07 18:11 50.83729 44.51463 34959 ft 463 kts 174°
2026-05-07 18:11 50.77298 44.52370 34959 ft 463 kts 174°
2026-05-07 18:12 50.70874 44.53277 34962 ft 464 kts 174°
2026-05-07 18:12 50.64476 44.54156 34962 ft 464 kts 174°
2026-05-07 18:13 50.58037 44.55046 34955 ft 464 kts 174°
2026-05-07 18:13 50.51591 44.55950 34958 ft 464 kts 174°
2026-05-07 18:14 50.45149 44.56855 34958 ft 464 kts 174°
2026-05-07 18:14 50.38714 44.57739 34964 ft 464 kts 174°
2026-05-07 18:15 50.32276 44.58626 34972 ft 465 kts 174°
2026-05-07 18:15 50.25869 44.59500 34971 ft 465 kts 174°
2026-05-07 18:16 50.19421 44.60382 34969 ft 465 kts 174°
2026-05-07 18:16 50.12961 44.61258 34969 ft 465 kts 174°
2026-05-07 18:17 50.06526 44.62136 34978 ft 465 kts 174°
2026-05-07 18:17 50.00077 44.63016 34978 ft 465 kts 174°
2026-05-07 18:18 49.93633 44.63880 34981 ft 464 kts 174°
2026-05-07 18:18 49.87197 44.64740 34979 ft 464 kts 174°
2026-05-07 18:19 49.80762 44.65609 34971 ft 464 kts 174°
2026-05-07 18:19 49.74324 44.66477 34969 ft 465 kts 174°
2026-05-07 18:20 49.67887 44.67339 34972 ft 465 kts 174°
2026-05-07 18:20 49.61467 44.68199 34974 ft 465 kts 174°
2026-05-07 18:21 49.55008 44.69066 34975 ft 465 kts 174°
2026-05-07 18:21 49.48558 44.69921 34987 ft 465 kts 174°
2026-05-07 18:22 49.42111 44.70768 35053 ft 464 kts 174°
2026-05-07 18:22 49.39978 44.71050 35268 ft 464 kts 174°
2026-05-07 18:22 49.35679 44.71621 35681 ft 463 kts 174°
2026-05-07 18:22 49.32503 44.72043 35925 ft 464 kts 175°
2026-05-07 18:23 49.29284 44.72467 35992 ft 464 kts 175°
2026-05-07 18:23 49.22855 44.73309 35978 ft 463 kts 175°
2026-05-07 18:24 49.16453 44.74144 35978 ft 461 kts 175°
2026-05-07 18:24 49.10059 44.74977 35985 ft 461 kts 175°
2026-05-07 18:25 49.03654 44.75813 35982 ft 462 kts 175°
2026-05-07 18:25 48.97279 44.76647 35984 ft 462 kts 175°
2026-05-07 18:26 48.90879 44.77473 36006 ft 461 kts 175°
2026-05-07 18:26 48.84603 44.79299 35997 ft 460 kts 159°
2026-05-07 18:27 48.79022 44.83962 35985 ft 457 kts 141°
2026-05-07 18:27 48.74038 44.89912 35977 ft 458 kts 141°
2026-05-07 18:28 48.69002 44.95861 35982 ft 458 kts 141°
2026-05-07 18:28 48.63966 45.01768 35978 ft 458 kts 141°
2026-05-07 18:29 48.58959 45.07655 35979 ft 458 kts 141°
2026-05-07 18:29 48.53931 45.13565 35981 ft 458 kts 141°
2026-05-07 18:30 48.48884 45.19465 35986 ft 459 kts 141°
2026-05-07 18:30 48.43832 45.25353 35986 ft 459 kts 141°
2026-05-07 18:31 48.38571 45.30794 35985 ft 459 kts 153°
2026-05-07 18:31 48.32832 45.35030 35983 ft 459 kts 153°
2026-05-07 18:32 48.27084 45.39237 35978 ft 459 kts 154°
2026-05-07 18:32 48.21334 45.43447 35979 ft 459 kts 153°
2026-05-07 18:33 48.15616 45.47624 35976 ft 459 kts 153°
2026-05-07 18:33 48.09876 45.51811 35980 ft 459 kts 153°
2026-05-07 18:34 48.04132 45.55990 35981 ft 459 kts 153°
2026-05-07 18:34 47.98369 45.60177 35979 ft 459 kts 153°
2026-05-07 18:35 47.92614 45.64345 35974 ft 460 kts 153°
2026-05-07 18:35 47.86884 45.68483 35976 ft 460 kts 154°
2026-05-07 18:36 47.81120 45.72636 35978 ft 460 kts 154°
2026-05-07 18:36 47.75334 45.76788 35977 ft 460 kts 153°
2026-05-07 18:37 47.69589 45.80897 35984 ft 460 kts 153°
2026-05-07 18:37 47.63818 45.85025 35982 ft 460 kts 154°
2026-05-07 18:38 47.58030 45.89147 35980 ft 460 kts 154°
2026-05-07 18:38 47.52243 45.93258 35981 ft 460 kts 154°
2026-05-07 18:39 47.46503 45.97332 35982 ft 460 kts 154°
2026-05-07 18:39 47.40714 46.01428 35982 ft 460 kts 154°
2026-05-07 18:40 47.34934 46.05527 35981 ft 461 kts 154°
2026-05-07 18:40 47.29144 46.09615 35987 ft 460 kts 154°
2026-05-07 18:41 47.23390 46.13670 35990 ft 460 kts 154°
2026-05-07 18:41 47.17604 46.17746 35987 ft 460 kts 154°
2026-05-07 18:42 47.11819 46.21805 35983 ft 460 kts 154°
2026-05-07 18:42 47.06317 46.26449 35984 ft 459 kts 140°
2026-05-07 18:43 47.01999 46.33284 35989 ft 456 kts 122°
2026-05-07 18:43 46.98588 46.41115 35983 ft 456 kts 121°
2026-05-07 18:44 46.95166 46.48957 35982 ft 456 kts 121°
2026-05-07 18:44 46.91761 46.56735 35984 ft 457 kts 121°
2026-05-07 18:45 46.88336 46.64552 35991 ft 456 kts 121°
2026-05-07 18:45 46.84920 46.72347 35988 ft 455 kts 122°
2026-05-07 18:46 46.81502 46.80114 35981 ft 454 kts 122°
2026-05-07 18:46 46.78075 46.87867 35973 ft 454 kts 122°
2026-05-07 18:47 46.75215 46.94308 35977 ft 454 kts 122°
2026-05-07 18:47 46.71783 47.02024 35977 ft 453 kts 122°
2026-05-07 18:48 46.68356 47.09741 35974 ft 453 kts 122°
2026-05-07 18:48 46.64977 47.17496 35971 ft 453 kts 122°
2026-05-07 18:49 46.61626 47.25254 35966 ft 453 kts 122°
2026-05-07 18:49 46.58248 47.33001 35964 ft 453 kts 122°
2026-05-07 18:50 46.54884 47.40661 35959 ft 453 kts 122°
2026-05-07 18:50 46.51480 47.48383 35961 ft 453 kts 122°
2026-05-07 18:51 46.48087 47.56078 35960 ft 453 kts 122°
2026-05-07 18:51 46.44677 47.63783 35956 ft 453 kts 122°
2026-05-07 18:52 46.41291 47.71427 35953 ft 453 kts 122°
2026-05-07 18:52 46.37870 47.79111 35954 ft 453 kts 122°
2026-05-07 18:53 46.34443 47.86788 35923 ft 454 kts 123°
2026-05-07 18:53 46.31014 47.94468 35913 ft 455 kts 123°
2026-05-07 18:54 46.28047 48.02495 35912 ft 456 kts 109°
2026-05-07 18:54 46.26542 48.11385 35916 ft 456 kts 102°
2026-05-07 18:55 46.25175 48.20365 35929 ft 457 kts 103°
2026-05-07 18:55 46.23792 48.29292 35926 ft 457 kts 103°
2026-05-07 18:56 46.22403 48.38261 35929 ft 458 kts 103°
2026-05-07 18:56 46.20997 48.47241 35934 ft 458 kts 105°
2026-05-07 18:56 46.19938 48.51574 35935 ft 457 kts 116°
2026-05-07 18:57 46.18300 48.55487 35933 ft 456 kts 128°
2026-05-07 18:57 46.16160 48.58851 35934 ft 455 kts 140°
2026-05-07 18:57 46.13590 48.61490 35929 ft 453 kts 153°
2026-05-07 18:57 46.10688 48.63104 35927 ft 450 kts 168°
2026-05-07 18:58 46.07569 48.63589 35933 ft 447 kts 184°
2026-05-07 18:58 46.04561 48.62897 35924 ft 445 kts 198°
2026-05-07 18:58 46.01705 48.61026 35919 ft 444 kts 214°
2026-05-07 18:58 45.99343 48.58187 35917 ft 444 kts 229°
2026-05-07 18:59 45.97493 48.54693 35924 ft 445 kts 234°
2026-05-07 18:59 45.93915 48.47403 35929 ft 447 kts 234°
2026-05-07 19:00 45.90321 48.40077 35935 ft 448 kts 234°
2026-05-07 19:00 45.86716 48.32759 35942 ft 449 kts 234°
2026-05-07 19:01 45.83120 48.25480 35952 ft 450 kts 234°
2026-05-07 19:01 45.79485 48.18163 35965 ft 451 kts 234°
2026-05-07 19:02 45.75840 48.10843 35958 ft 451 kts 234°
2026-05-07 19:02 45.72190 48.03520 35975 ft 451 kts 234°
2026-05-07 19:03 45.68554 47.96244 35980 ft 452 kts 234°
2026-05-07 19:03 45.64880 47.88922 35987 ft 453 kts 234°
2026-05-07 19:04 45.61200 47.81602 35993 ft 453 kts 234°
2026-05-07 19:04 45.57515 47.74290 36008 ft 453 kts 234°
2026-05-07 19:05 45.53825 47.66983 36007 ft 454 kts 234°
2026-05-07 19:05 45.50135 47.59686 36011 ft 454 kts 234°
2026-05-07 19:06 45.46430 47.52387 36011 ft 454 kts 233°
2026-05-07 19:06 45.40882 47.41512 36021 ft 454 kts 234°
2026-05-07 19:07 45.37150 47.34197 36017 ft 455 kts 234°
2026-05-07 19:07 45.33441 47.26951 36015 ft 455 kts 233°
2026-05-07 19:08 45.29701 47.19680 36022 ft 455 kts 233°
2026-05-07 19:08 45.25980 47.12463 36026 ft 455 kts 233°
2026-05-07 19:09 45.22253 47.05247 36027 ft 456 kts 233°
2026-05-07 19:09 45.18503 46.97984 36039 ft 456 kts 233°
2026-05-07 19:10 45.14749 46.90731 36042 ft 456 kts 233°
2026-05-07 19:10 45.10990 46.83517 36046 ft 456 kts 233°
2026-05-07 19:11 45.07213 46.76298 36046 ft 456 kts 233°
2026-05-07 19:11 45.03433 46.69072 36050 ft 456 kts 233°
2026-05-07 19:12 44.99680 46.61910 36058 ft 456 kts 233°
2026-05-07 19:12 44.95898 46.54715 36068 ft 456 kts 233°
2026-05-07 19:13 44.92113 46.47514 36067 ft 456 kts 233°
2026-05-07 19:13 44.88323 46.40318 36072 ft 456 kts 233°
2026-05-07 19:14 44.84561 46.33223 36076 ft 456 kts 233°
2026-05-07 19:14 44.80733 46.26036 36070 ft 457 kts 233°
2026-05-07 19:15 44.76918 46.18872 36067 ft 457 kts 233°
2026-05-07 19:15 44.73094 46.11690 36073 ft 458 kts 233°
2026-05-07 19:16 44.69260 46.04511 36083 ft 458 kts 233°
2026-05-07 19:16 44.65427 45.97370 36085 ft 458 kts 232°
2026-05-07 19:17 44.61589 45.90233 36090 ft 458 kts 232°
2026-05-07 19:17 44.57743 45.83090 36098 ft 458 kts 232°
2026-05-07 19:18 44.53903 45.75965 36090 ft 458 kts 232°
2026-05-07 19:18 44.50044 45.68829 36106 ft 459 kts 232°
2026-05-07 19:19 44.46209 45.61764 36102 ft 459 kts 232°
2026-05-07 19:19 44.42335 45.54652 36104 ft 459 kts 232°
2026-05-07 19:20 44.38457 45.47552 36114 ft 459 kts 232°
2026-05-07 19:20 44.34574 45.40444 36122 ft 459 kts 232°
2026-05-07 19:21 44.30713 45.33391 36128 ft 459 kts 232°
2026-05-07 19:21 44.26820 45.26299 36125 ft 459 kts 232°
2026-05-07 19:22 44.22920 45.19227 36129 ft 460 kts 232°
2026-05-07 19:22 44.19015 45.12157 36134 ft 460 kts 232°
2026-05-07 19:23 44.15111 45.05105 36133 ft 460 kts 232°
2026-05-07 19:23 44.11199 44.98054 36139 ft 460 kts 232°
2026-05-07 19:24 44.07304 44.91050 36140 ft 460 kts 232°
2026-05-07 19:24 44.03370 44.83990 36145 ft 460 kts 232°
2026-05-07 19:25 43.99439 44.76946 36142 ft 461 kts 232°
2026-05-07 19:25 43.95527 44.69958 36135 ft 461 kts 231°
2026-05-07 19:26 43.91578 44.62934 36142 ft 461 kts 232°
2026-05-07 19:26 43.87632 44.55921 36139 ft 461 kts 231°
2026-05-07 19:27 43.83686 44.48919 36136 ft 461 kts 232°
2026-05-07 19:27 43.79751 44.41961 36134 ft 461 kts 232°
2026-05-07 19:28 43.75784 44.34977 36132 ft 461 kts 231°
2026-05-07 19:28 43.71826 44.28007 36129 ft 461 kts 231°
2026-05-07 19:29 43.67862 44.21048 36129 ft 461 kts 232°
2026-05-07 19:29 43.64760 44.13347 36124 ft 461 kts 251°
2026-05-07 19:30 43.63690 44.04669 36125 ft 461 kts 271°
2026-05-07 19:30 43.63956 43.95819 36117 ft 461 kts 272°
2026-05-07 19:31 43.64166 43.88460 36117 ft 461 kts 272°
2026-05-07 19:31 43.64435 43.78162 36117 ft 462 kts 272°
2026-05-07 19:32 43.64630 43.70738 36117 ft 462 kts 272°
2026-05-07 19:32 43.64863 43.61921 36116 ft 462 kts 272°
2026-05-07 19:33 43.65094 43.53054 36129 ft 462 kts 272°
2026-05-07 19:33 43.65307 43.44182 36141 ft 463 kts 272°
2026-05-07 19:34 43.65528 43.35279 36146 ft 463 kts 272°
2026-05-07 19:34 43.65737 43.26401 36156 ft 464 kts 272°
2026-05-07 19:35 43.65930 43.17495 36174 ft 464 kts 272°
2026-05-07 19:35 43.66113 43.08585 36175 ft 464 kts 272°
2026-05-07 19:36 43.66304 42.99666 36201 ft 464 kts 272°
2026-05-07 19:36 43.66493 42.90749 36200 ft 464 kts 272°
2026-05-07 19:37 43.66665 42.81893 36212 ft 465 kts 272°
2026-05-07 19:37 43.66822 42.72967 36213 ft 465 kts 272°
2026-05-07 19:38 43.66982 42.64018 36210 ft 465 kts 272°
2026-05-07 19:38 43.67132 42.55102 36224 ft 465 kts 272°
2026-05-07 19:39 43.67271 42.46178 36224 ft 465 kts 272°
2026-05-07 19:39 43.67407 42.37244 36224 ft 465 kts 272°
2026-05-07 19:40 43.67544 42.28313 36222 ft 465 kts 272°
2026-05-07 19:40 43.67670 42.19370 36227 ft 466 kts 272°
2026-05-07 19:41 43.67786 42.10412 36234 ft 466 kts 272°
2026-05-07 19:41 43.67892 42.01454 36241 ft 466 kts 272°
2026-05-07 19:42 43.67998 41.92495 36237 ft 466 kts 272°
2026-05-07 19:42 43.68094 41.83545 36241 ft 466 kts 272°
2026-05-07 19:43 43.68180 41.74622 36245 ft 466 kts 272°
2026-05-07 19:43 43.68255 41.65669 36251 ft 467 kts 272°
2026-05-07 19:44 43.68333 41.56704 36248 ft 467 kts 272°
2026-05-07 19:44 43.68408 41.47725 36247 ft 467 kts 272°
2026-05-07 19:45 43.68471 41.38758 36239 ft 467 kts 272°
2026-05-07 19:45 43.68516 41.29804 36244 ft 467 kts 272°
2026-05-07 19:46 43.68564 41.20870 36242 ft 467 kts 272°
2026-05-07 19:46 43.68609 41.11882 36244 ft 467 kts 272°
2026-05-07 19:47 43.68636 41.02897 36238 ft 467 kts 271°
2026-05-07 19:47 43.68652 40.93924 35970 ft 467 kts 272°
2026-05-07 19:48 43.68662 40.89419 35719 ft 467 kts 272°
2026-05-07 19:48 43.68677 40.84932 35469 ft 468 kts 272°
2026-05-07 19:48 43.68701 40.80416 35238 ft 469 kts 272°
2026-05-07 19:48 43.68729 40.75991 34955 ft 470 kts 272°
2026-05-07 19:49 43.68758 40.71389 34594 ft 471 kts 272°
2026-05-07 19:49 43.68781 40.66862 34182 ft 472 kts 272°
2026-05-07 19:49 43.68799 40.62329 33470 ft 473 kts 272°
2026-05-07 19:49 43.68811 40.57762 32793 ft 476 kts 272°
2026-05-07 19:50 43.68820 40.53176 32136 ft 478 kts 272°
2026-05-07 19:50 43.68825 40.48569 31486 ft 480 kts 272°
2026-05-07 19:50 43.68829 40.43946 30713 ft 482 kts 272°
2026-05-07 19:50 43.68833 40.39305 29696 ft 484 kts 272°
2026-05-07 19:51 43.68838 40.34694 28597 ft 485 kts 272°
2026-05-07 19:51 43.68841 40.29976 27505 ft 485 kts 272°
2026-05-07 19:51 43.68840 40.25378 26478 ft 485 kts 271°
2026-05-07 19:51 43.68593 40.20733 25474 ft 486 kts 260°
2026-05-07 19:52 43.67617 40.16205 24499 ft 487 kts 247°
2026-05-07 19:52 43.65986 40.12188 23406 ft 485 kts 234°
2026-05-07 19:52 43.63750 40.08750 22188 ft 477 kts 221°
2026-05-07 19:52 43.61086 40.06098 21023 ft 469 kts 209°
2026-05-07 19:53 43.58179 40.04158 19895 ft 461 kts 204°
2026-05-07 19:53 43.55262 40.02328 18806 ft 455 kts 204°
2026-05-07 19:53 43.52393 40.00537 17636 ft 448 kts 204°
2026-05-07 19:53 43.49614 39.98807 16469 ft 440 kts 204°
2026-05-07 19:54 43.46855 39.97089 15330 ft 432 kts 204°
2026-05-07 19:54 43.44090 39.95585 14243 ft 423 kts 198°
2026-05-07 19:54 43.41315 39.94325 13286 ft 420 kts 198°
2026-05-07 19:54 43.38554 39.93068 12477 ft 413 kts 198°
2026-05-07 19:55 43.35910 39.91861 11568 ft 387 kts 198°
2026-05-07 19:55 43.33470 39.90745 11221 ft 355 kts 198°
2026-05-07 19:55 43.31168 39.89693 11063 ft 341 kts 198°
2026-05-07 19:55 43.28963 39.88686 10993 ft 324 kts 198°
2026-05-07 19:56 43.26884 39.87738 11006 ft 307 kts 198°
2026-05-07 19:56 43.24882 39.86774 11011 ft 313 kts 204°
2026-05-07 19:56 43.22986 39.84950 10694 ft 356 kts 225°
2026-05-07 19:56 43.21496 39.82068 9733 ft 379 kts 245°
2026-05-07 19:57 43.20813 39.78619 8758 ft 368 kts 266°
2026-05-07 19:57 43.20936 39.75233 7829 ft 347 kts 277°
2026-05-07 19:57 43.21232 39.72027 6920 ft 331 kts 278°
2026-05-07 19:57 43.21532 39.68948 5980 ft 319 kts 277°
2026-05-07 19:58 43.21806 39.66008 5067 ft 309 kts 277°
2026-05-07 19:58 43.22072 39.63132 4171 ft 300 kts 277°
2026-05-07 19:58 43.22337 39.60312 3304 ft 303 kts 277°
2026-05-07 19:58 43.22614 39.57465 2859 ft 296 kts 277°
2026-05-07 19:59 43.22880 39.54761 2473 ft 279 kts 277°
2026-05-07 19:59 43.22829 39.52133 2097 ft 274 kts 254°
2026-05-07 19:59 43.21925 39.49943 1997 ft 259 kts 224°
2026-05-07 19:59 43.20428 39.48712 2013 ft 256 kts 194°
2026-05-07 20:00 43.18669 39.48650 2010 ft 254 kts 165°
2026-05-07 20:00 43.17095 39.49695 2012 ft 253 kts 140°
2026-05-07 20:00 43.16012 39.51563 2009 ft 252 kts 114°
2026-05-07 20:00 43.15625 39.53892 2009 ft 252 kts 89°
2026-05-07 20:01 43.16012 39.56214 2014 ft 253 kts 64°
2026-05-07 20:01 43.16890 39.58305 2008 ft 254 kts 59°
2026-05-07 20:01 43.17788 39.60389 2008 ft 254 kts 60°
2026-05-07 20:01 43.18684 39.62480 2008 ft 254 kts 60°
2026-05-07 20:02 43.19565 39.64546 2008 ft 254 kts 60°
2026-05-07 20:02 43.20452 39.66633 2007 ft 254 kts 60°
2026-05-07 20:02 43.21343 39.68729 2008 ft 255 kts 60°
2026-05-07 20:02 43.22234 39.70831 2009 ft 255 kts 60°
2026-05-07 20:03 43.23123 39.72934 2009 ft 255 kts 60°
2026-05-07 20:03 43.24013 39.75047 2012 ft 255 kts 60°
2026-05-07 20:03 43.24901 39.77147 2009 ft 254 kts 60°
2026-05-07 20:03 43.25761 39.79177 2003 ft 238 kts 60°
2026-05-07 20:04 43.26590 39.81057 2003 ft 223 kts 54°
2026-05-07 20:04 43.27654 39.82516 2007 ft 214 kts 36°
2026-05-07 20:04 43.28877 39.83548 2025 ft 199 kts 30°
2026-05-07 20:04 43.30008 39.84400 2024 ft 177 kts 29°
2026-05-07 20:05 43.31025 39.85159 2001 ft 160 kts 30°
2026-05-07 20:05 43.31991 39.85881 2002 ft 154 kts 30°
2026-05-07 20:05 43.32927 39.86582 2008 ft 153 kts 30°
2026-05-07 20:05 43.33859 39.87279 1996 ft 152 kts 30°
2026-05-07 20:06 43.34766 39.87958 1900 ft 144 kts 30°
2026-05-07 20:06 43.35634 39.88608 1731 ft 140 kts 29°
2026-05-07 20:06 43.36474 39.89237 1560 ft 139 kts 30°
2026-05-07 20:06 43.37318 39.89869 1382 ft 138 kts 29°
2026-05-07 20:07 43.38157 39.90498 1205 ft 137 kts 28°
2026-05-07 20:07 43.38992 39.91124 1030 ft 137 kts 28°
2026-05-07 20:07 43.39826 39.91749 846 ft 136 kts 28°
2026-05-07 20:07 43.40645 39.92367 694 ft 135 kts 29°
2026-05-07 20:08 43.41462 39.93004 578 ft 134 kts 28°
2026-05-07 20:08 43.42286 39.93601 426 ft 134 kts 28°
2026-05-07 20:08 43.43102 39.94205 183 ft 133 kts 29°
2026-05-07 20:08 43.43887 39.94799 76 ft 119 kts 28°
2026-05-07 20:09 43.44429 39.95207 83 ft 62 kts 28°
2026-05-07 20:09 43.44737 39.95439 90 ft 43 kts 28°
2026-05-07 20:09 43.44908 39.95567 89 ft 21 kts 28°
2026-05-07 20:10 43.45035 39.95527 91 ft 0 kts 335°
2026-05-07 20:10 43.45037 39.95526 91 ft 0 kts 335°
2026-05-07 20:10 43.45038 39.95525 91 ft 0 kts 335°
2026-05-07 20:11 43.45041 39.95523 91 ft 0 kts 335°
2026-05-07 20:11 43.45056 39.95497 95 ft 5 kts 297°
2026-05-07 20:11 43.45052 39.95448 91 ft 6 kts 247°
2026-05-07 20:11 43.45031 39.95383 89 ft 12 kts 245°
2026-05-07 20:12 43.44988 39.95262 88 ft 14 kts 244°
2026-05-07 20:12 43.44944 39.95133 85 ft 16 kts 242°
2026-05-07 20:12 43.44894 39.94993 81 ft 17 kts 245°
2026-05-07 20:12 43.44850 39.94867 70 ft 15 kts 244°
2026-05-07 20:13 43.44805 39.94734 75 ft 15 kts 245°
2026-05-07 20:13 43.44763 39.94610 73 ft 14 kts 245°
2026-05-07 20:13 43.44721 39.94488 71 ft 14 kts 245°
2026-05-07 20:13 43.44695 39.94402 72 ft 6 kts 260°
2026-05-07 20:14 43.44712 39.94364 67 ft 5 kts 331°
2026-05-07 20:14 43.44739 39.94346 71 ft 5 kts 334°
2026-05-07 20:14 43.44767 39.94328 71 ft 4 kts 335°
2026-05-07 20:14 43.44776 39.94322 69 ft 1 kts 335°
2026-05-07 20:15 43.44783 39.94317 72 ft 1 kts 335°
2026-05-07 20:15 43.44785 39.94316 72 ft 1 kts 335°
2026-05-07 20:15 43.44789 39.94314 72 ft 0 kts 335°